Change the Weather History Date:

Monday, March 18, 2013

  Actual Average Record
Temperature  
Mean Temperature 13 °F -  
Max Temperature 26 °F 40 °F 66 °F (2012)
Min Temperature 0 °F 19 °F 0 °F (2013)
Degree Days  
Heating Degree Days 52    
Moisture  
Dew Point 4 °F    
Average Humidity 70    
Maximum Humidity 93    
Minimum Humidity 54    
Precipitation  
Precipitation 0.02 in - - ()
Sea Level Pressure  
Sea Level Pressure 29.92 in    
Wind  
Wind Speed 14 mph (WSW)    
Max Wind Speed 25 mph    
Max Gust Speed 36 mph    
Visibility 10 miles    
Events      
Averages and records for this station are not official NWS values.
T = Trace of Precipitation, MM = Missing Value Source: NWS Daily Summary

Daily Weather History Graph

Daily Weather History Graph

Search for Another Location

Airport or City:

Trip Planner

Search our weather history database for the weather conditions in past years. The results will help you decide how hot, cold, wet, or windy it might be!

Date:

Astronomy

Mar. 18, 2013 Rise Set
Actual Time 7:05 AM MDT 7:09 PM MDT
Civil Twilight 6:35 AM MDT 7:40 PM MDT
Nautical Twilight 5:59 AM MDT 8:15 PM MDT
Astronomical Twilight 5:22 AM MDT 8:52 PM MDT
Moon 10:44 AM MDT (3/18) 1:33 AM MDT (3/18)
Length of Visible Light 13h 04m
Length of Day
12h 04m
Waxing Crescent, 41% of the Moon is Illuminated
Mar 18
Waxing Crescent
Mar 19
First Quarter
Mar 27
Full
Apr 2
Last Quarter
Apr 10
New

Hourly Weather History & Observations

Time (MDT) Temp. Windchill Dew Point Humidity Pressure Visibility Wind Dir Wind Speed Gust Speed Precip Events Conditions
12:15 AM 5.0 °F -16.7 °F -2.2 °F 72% 29.87 in 10.0 mi WNW 23.0 mph 32.2 mph N/A   Partly Cloudy
12:35 AM 5.0 °F -16.2 °F -4.0 °F 66% 29.87 in 10.0 mi WNW 21.9 mph 29.9 mph N/A   Mostly Cloudy
12:55 AM 5.0 °F -15.2 °F -4.0 °F 66% 29.89 in 10.0 mi WNW 19.6 mph 29.9 mph N/A   Mostly Cloudy
1:15 AM 5.0 °F -17.5 °F -2.2 °F 72% 29.90 in 10.0 mi WNW 25.3 mph 28.8 mph N/A   Mostly Cloudy
1:35 AM 6.8 °F -14.3 °F -2.2 °F 67% 29.91 in 10.0 mi WNW 23.0 mph 27.6 mph N/A   Mostly Cloudy
1:55 AM 6.8 °F -13.4 °F -2.2 °F 67% 29.91 in 9.0 mi WNW 20.7 mph 28.8 mph N/A   Partly Cloudy
2:15 AM 6.8 °F -12.9 °F -2.2 °F 67% 29.92 in 6.0 mi WNW 19.6 mph 25.3 mph N/A   Clear
2:35 AM 5.0 °F -15.7 °F -2.2 °F 72% 29.92 in 7.0 mi WNW 20.7 mph 31.1 mph N/A   Mostly Cloudy
2:55 AM 5.0 °F -17.1 °F -2.2 °F 72% 29.92 in 10.0 mi WNW 24.2 mph 28.8 mph N/A   Mostly Cloudy
3:35 AM 5.0 °F -15.7 °F -2.2 °F 72% 29.92 in 10.0 mi WNW 20.7 mph 28.8 mph N/A   Clear
3:55 AM 3.2 °F -19.5 °F -2.2 °F 78% 29.92 in 10.0 mi WNW 24.2 mph 29.9 mph N/A   Clear
4:15 AM 3.2 °F -19.0 °F -2.2 °F 78% 29.92 in 10.0 mi WNW 23.0 mph 35.7 mph N/A   Clear
4:55 AM 3.2 °F -15.9 °F -4.0 °F 72% 29.94 in 10.0 mi WNW 16.1 mph 24.2 mph N/A   Clear
5:35 AM 3.2 °F -15.9 °F -5.8 °F 66% 29.95 in 10.0 mi WNW 16.1 mph - N/A   Clear
5:55 AM 1.4 °F -16.1 °F -4.0 °F 78% 29.96 in 10.0 mi WNW 12.7 mph - N/A   Clear
6:15 AM 1.4 °F -16.9 °F -5.8 °F 72% 29.96 in 10.0 mi WNW 13.8 mph - N/A   Clear
6:35 AM 1.4 °F -16.1 °F -4.0 °F 78% 29.97 in 10.0 mi WNW 12.7 mph - N/A   Clear
6:55 AM 1.4 °F -14.5 °F -5.8 °F 72% 29.97 in 10.0 mi WNW 10.4 mph - N/A   Clear
7:15 AM -0.4 °F -15.7 °F -7.6 °F 72% 29.97 in 10.0 mi NW 9.2 mph - N/A   Clear
7:35 AM -0.4 °F -16.7 °F -5.8 °F 78% 29.97 in 10.0 mi NW 10.4 mph - N/A   Clear
7:55 AM 1.4 °F -13.5 °F -2.2 °F 85% 29.98 in 10.0 mi WNW 9.2 mph - N/A   Clear
8:15 AM 3.2 °F -7.8 °F -2.2 °F 78% 29.99 in 10.0 mi WNW 5.8 mph - N/A   Clear
8:35 AM 3.2 °F -9.1 °F -4.0 °F 72% 29.99 in 10.0 mi WNW 6.9 mph - N/A   Clear
8:55 AM 5.0 °F -8.1 °F -2.2 °F 72% 29.99 in 10.0 mi West 8.1 mph - N/A   Clear
9:15 AM 5.0 °F -6.9 °F -2.2 °F 72% 29.99 in 10.0 mi West 6.9 mph - N/A   Clear
9:35 AM 6.8 °F -3.5 °F -0.4 °F 72% 29.99 in 10.0 mi West 5.8 mph - N/A   Clear
9:55 AM 8.6 °F -3.7 °F -2.2 °F 62% 30.00 in 10.0 mi SW 8.1 mph - N/A   Clear
10:15 AM 8.6 °F -3.7 °F -0.4 °F 67% 29.99 in 10.0 mi SW 8.1 mph - N/A   Clear
10:35 AM 8.6 °F -3.7 °F -0.4 °F 67% 29.99 in 10.0 mi WSW 8.1 mph - N/A   Clear
10:55 AM 10.4 °F -1.5 °F -0.4 °F 62% 29.99 in 10.0 mi West 8.1 mph - N/A   Clear
11:15 AM 12.2 °F 0.7 °F 1.4 °F 62% 29.98 in 10.0 mi WSW 8.1 mph - N/A   Clear
11:35 AM 12.2 °F 2.9 °F 3.2 °F 67% 29.97 in 10.0 mi WSW 5.8 mph - N/A   Clear
11:55 AM 15.8 °F 7.2 °F 3.2 °F 58% 29.97 in 10.0 mi SSW 5.8 mph - N/A   Clear
12:15 PM 15.8 °F 6.1 °F 3.2 °F 58% 29.96 in 10.0 mi SSW 6.9 mph - N/A   Clear
12:35 PM 15.8 °F 8.6 °F 3.2 °F 58% 29.95 in 10.0 mi South 4.6 mph - N/A   Clear
12:55 PM 17.6 °F - 6.8 °F 63% 29.95 in 10.0 mi Calm Calm - N/A   Clear
1:15 PM 19.4 °F 11.5 °F 5.0 °F 54% 29.95 in 10.0 mi SSW 5.8 mph - N/A   Clear
1:35 PM 19.4 °F 11.5 °F 8.6 °F 63% 29.94 in 10.0 mi SSW 5.8 mph - 0.01 in   Clear
1:55 PM 19.4 °F 14.3 °F 6.8 °F 58% 29.93 in 10.0 mi SE 3.5 mph - 0.01 in   Clear
2:15 PM 21.2 °F - 10.4 °F 63% 29.92 in 10.0 mi Calm Calm - 0.01 in   Clear
2:35 PM 21.2 °F 13.6 °F 10.4 °F 63% 29.91 in 10.0 mi SSW 5.8 mph - 0.01 in   Clear
3:15 PM 23.0 °F 18.4 °F 12.2 °F 63% 29.90 in 10.0 mi SSE 3.5 mph - N/A   Clear
3:35 PM 21.2 °F 12.6 °F 10.4 °F 63% 29.89 in 10.0 mi South 6.9 mph - N/A   Clear
3:55 PM 21.2 °F 12.6 °F 12.2 °F 68% 29.89 in 10.0 mi SSE 6.9 mph - N/A   Clear
4:15 PM 23.0 °F 13.1 °F 14.0 °F 68% 29.88 in 10.0 mi SE 9.2 mph - N/A   Clear
4:35 PM 23.0 °F 15.8 °F 14.0 °F 68% 29.88 in 10.0 mi SSE 5.8 mph - N/A   Clear
4:55 PM 24.8 °F 15.3 °F 14.0 °F 64% 29.88 in 10.0 mi SSW 9.2 mph - N/A   Clear
5:15 PM 24.8 °F 16.9 °F 14.0 °F 64% 29.88 in 10.0 mi SSW 6.9 mph - N/A   Clear
5:35 PM 26.6 °F 19.1 °F 14.0 °F 59% 29.87 in 10.0 mi South 6.9 mph - N/A   Clear
5:55 PM 26.6 °F 19.1 °F 15.8 °F 64% 29.87 in 10.0 mi SSE 6.9 mph - N/A   Clear
6:35 PM 26.6 °F 19.1 °F 14.0 °F 59% 29.87 in 10.0 mi SE 6.9 mph - N/A   Partly Cloudy
6:55 PM 24.8 °F 19.1 °F 14.0 °F 64% 29.87 in 10.0 mi SE 4.6 mph - N/A   Clear
7:15 PM 24.8 °F 17.9 °F 14.0 °F 64% 29.87 in 10.0 mi SSE 5.8 mph - N/A   Clear
7:35 PM 23.0 °F 17.0 °F 12.2 °F 63% 29.87 in 10.0 mi SSE 4.6 mph - N/A   Clear
7:55 PM 21.2 °F 14.9 °F 12.2 °F 68% 29.87 in 10.0 mi ESE 4.6 mph - N/A   Clear
8:15 PM 19.4 °F 11.5 °F 14.0 °F 80% 29.87 in 10.0 mi ESE 5.8 mph - N/A   Scattered Clouds
8:35 PM 19.4 °F 10.4 °F 14.0 °F 80% 29.87 in 10.0 mi SSE 6.9 mph - N/A   Partly Cloudy
8:55 PM 19.4 °F 10.4 °F 12.2 °F 74% 29.88 in 10.0 mi South 6.9 mph - N/A   Clear
9:15 PM 17.6 °F 10.7 °F 12.2 °F 79% 29.88 in 10.0 mi SSW 4.6 mph - N/A   Clear
9:35 PM 17.6 °F 9.3 °F 12.2 °F 79% 29.89 in 10.0 mi South 5.8 mph - N/A   Clear
9:55 PM 17.6 °F 8.2 °F 12.2 °F 79% 29.89 in 10.0 mi SSW 6.9 mph - N/A   Clear
10:15 PM 15.8 °F 7.2 °F 10.4 °F 79% 29.88 in 10.0 mi SW 5.8 mph - N/A   Clear
10:35 PM 15.8 °F - 14.0 °F 93% 29.88 in 10.0 mi Calm Calm - N/A   Clear
10:55 PM 15.8 °F 6.1 °F 10.4 °F 79% 29.89 in 10.0 mi SSW 6.9 mph - N/A   Clear
11:35 PM 15.8 °F - 12.2 °F 86% 29.89 in 10.0 mi Calm Calm - N/A   Clear